| time (UTC) | temp C | wind direction | speed KPH | gust KPH | rain 1hr cm | rain 24hr cm | rain mn cm | humidity % | barometer mb |
| 20260510190518 | 20 | 338 | 4.8 | 9.7 | 0.00 | 0.03 | 0.03 | 49 | 1015.6 |
| 20260510185520 | 20 | 336 | 3.2 | 9.7 | 0.00 | 0.03 | 0.03 | 50 | 1015.6 |
| 20260510184520 | 20 | 349 | 1.6 | 6.4 | 0.00 | 0.03 | 0.03 | 50 | 1015.7 |
| 20260510183520 | 20 | 295 | 3.2 | 9.7 | 0.00 | 0.03 | 0.03 | 50 | 1015.6 |
| 20260510182520 | 19 | 327 | 3.2 | 9.7 | 0.00 | 0.03 | 0.03 | 50 | 1015.6 |
| 20260510181518 | 19 | 319 | 1.6 | 8.0 | 0.00 | 0.03 | 0.03 | 51 | 1015.7 |
| 20260510180518 | 19 | 323 | 3.2 | 11.3 | 0.00 | 0.03 | 0.03 | 50 | 1015.7 |
| 20260510175521 | 19 | 310 | 4.8 | 12.9 | 0.00 | 0.03 | 0.03 | 50 | 1015.3 |
| 20260510174520 | 20 | 318 | 4.8 | 11.3 | 0.00 | 0.03 | 0.03 | 50 | 1015.3 |
| 20260510173518 | 19 | 322 | 1.6 | 8.0 | 0.00 | 0.03 | 0.03 | 50 | 1015.4 |
| 20260510172518 | 18 | 203 | 1.6 | 8.0 | 0.00 | 0.03 | 0.03 | 51 | 1015.5 |
| 20260510171518 | 18 | 313 | 4.8 | 12.9 | 0.00 | 0.03 | 0.03 | 51 | 1015.5 |
| 20260510170518 | 18 | 322 | 3.2 | 6.4 | 0.00 | 0.03 | 0.03 | 52 | 1015.5 |
| 20260510165520 | 18 | 304 | 1.6 | 8.0 | 0.00 | 0.03 | 0.03 | 51 | 1015.6 |
| 20260510164520 | 18 | 313 | 3.2 | 9.7 | 0.00 | 0.03 | 0.03 | 51 | 1015.7 |
| 20260510163531 | 18 | 320 | 1.6 | 6.4 | 0.00 | 0.03 | 0.03 | 51 | 1015.7 |
| 20260510162519 | 18 | 33 | 1.6 | 6.4 | 0.00 | 0.03 | 0.03 | 51 | 1015.8 |
| 20260510161522 | 18 | 309 | 3.2 | 8.0 | 0.00 | 0.03 | 0.03 | 50 | 1015.7 |
| 20260510160520 | 18 | 306 | 3.2 | 11.3 | 0.00 | 0.03 | 0.03 | 49 | 1015.6 |
| 20260510155520 | 18 | 317 | 0.0 | 4.8 | 0.00 | 0.03 | 0.03 | 51 | 1015.6 |
| 20260510154520 | 17 | 320 | 1.6 | 8.0 | 0.00 | 0.03 | 0.03 | 52 | 1015.6 |
| 20260510153521 | 18 | 309 | 3.2 | 6.4 | 0.00 | 0.03 | 0.03 | 52 | 1015.4 |
| 20260510152522 | 17 | 346 | 1.6 | 8.0 | 0.00 | 0.03 | 0.03 | 55 | 1015.3 |
| 20260510151518 | 17 | 336 | 1.6 | 6.4 | 0.00 | 0.03 | 0.03 | 56 | 1015.2 |
| 20260510150518 | 16 | 175 | 0.0 | 4.8 | 0.00 | 0.03 | 0.03 | 59 | 1015.2 |
| 20260510145521 | 16 | 28 | 1.6 | 4.8 | 0.00 | 0.03 | 0.03 | 58 | 1015.1 |
| 20260510144521 | 15 | 343 | 1.6 | 8.0 | 0.00 | 0.03 | 0.03 | 59 | 1015.1 |
| 20260510143518 | 15 | 6 | 1.6 | 4.8 | 0.00 | 0.03 | 0.03 | 60 | 1014.9 |
| 20260510142518 | 15 | 347 | 1.6 | 4.8 | 0.00 | 0.03 | 0.03 | 61 | 1014.8 |
| 20260510141519 | 14 | 41 | 0.0 | 4.8 | 0.00 | 0.03 | 0.03 | 61 | 1014.8 |
| 20260510140518 | 14 | 29 | 0.0 | 3.2 | 0.00 | 0.03 | 0.03 | 61 | 1014.7 |
| 20260510135522 | 13 | 43 | 0.0 | 4.8 | 0.00 | 0.03 | 0.03 | 63 | 1014.8 |
| 20260510134519 | 13 | 20 | 0.0 | 4.8 | 0.00 | 0.03 | 0.03 | 63 | 1014.7 |
| 20260510133519 | 13 | 268 | 0.0 | 3.2 | 0.00 | 0.03 | 0.03 | 64 | 1014.7 |
| 20260510132524 | 13 | 1 | 0.0 | 4.8 | 0.00 | 0.03 | 0.03 | 65 | 1014.5 |
| 20260510131524 | 13 | 18 | 0.0 | 1.6 | 0.00 | 0.03 | 0.03 | 67 | 1014.5 |
| 20260510130524 | 13 | 16 | 0.0 | 3.2 | 0.00 | 0.03 | 0.03 | 68 | 1014.5 |
| 20260510125525 | 12 | 0.0 | 0.0 | 0.00 | 0.03 | 0.03 | 69 | 1014.5 | |
| 20260510124525 | 12 | 221 | 0.0 | 1.6 | 0.00 | 0.03 | 0.03 | 70 | 1014.3 |
| 20260510123525 | 12 | 26 | 0.0 | 4.8 | 0.00 | 0.03 | 0.03 | 69 | 1014.1 |
| 20260510122525 | 12 | 4 | 1.6 | 4.8 | 0.00 | 0.05 | 0.03 | 72 | 1014.0 |
| 20260510121525 | 12 | 0.0 | 0.0 | 0.00 | 0.05 | 0.03 | 74 | 1014.1 | |
| 20260510120525 | 12 | 0.0 | 0.0 | 0.00 | 0.05 | 0.03 | 74 | 1013.9 | |
| 20260510115525 | 12 | 0.0 | 0.0 | 0.00 | 0.05 | 0.03 | 73 | 1013.8 | |
| 20260510114526 | 12 | 44 | 0.0 | 1.6 | 0.00 | 0.05 | 0.03 | 74 | 1013.6 |
| 20260510113527 | 12 | 35 | 1.6 | 3.2 | 0.00 | 0.05 | 0.03 | 73 | 1013.6 |
| 20260510112526 | 12 | 36 | 1.6 | 4.8 | 0.00 | 0.05 | 0.03 | 76 | 1013.3 |
| 20260510111527 | 12 | 0.0 | 0.0 | 0.00 | 0.05 | 0.00 | 76 | 1013.2 | |
| 20260510110526 | 12 | 337 | 0.0 | 1.6 | 0.00 | 0.05 | 0.00 | 76 | 1013.1 |
| 20260510105526 | 13 | 6 | 0.0 | 3.2 | 0.00 | 0.05 | 0.00 | 77 | 1013.0 |
| 20260510104527 | 13 | 325 | 0.0 | 3.2 | 0.00 | 0.08 | 0.00 | 77 | 1012.6 |
| 20260510103527 | 13 | 332 | 1.6 | 4.8 | 0.00 | 0.10 | 0.00 | 76 | 1012.4 |
| 20260510102517 | 13 | 320 | 1.6 | 4.8 | 0.00 | 0.13 | 0.00 | 77 | 1012.1 |
| 20260510101521 | 13 | 327 | 0.0 | 3.2 | 0.00 | 0.13 | 0.00 | 78 | 1011.9 |
| 20260510100522 | 13 | 309 | 0.0 | 3.2 | 0.00 | 0.15 | 0.00 | 77 | 1011.8 |
| 20260510095521 | 13 | 333 | 0.0 | 1.6 | 0.00 | 0.15 | 0.00 | 77 | 1011.7 |
| 20260510094520 | 13 | 305 | 1.6 | 4.8 | 0.00 | 0.18 | 0.00 | 78 | 1011.7 |
| 20260510093518 | 13 | 330 | 1.6 | 6.4 | 0.00 | 0.18 | 0.00 | 78 | 1011.5 |
| 20260510092518 | 13 | 316 | 0.0 | 4.8 | 0.00 | 0.20 | 0.00 | 79 | 1011.4 |
| 20260510090520 | 13 | 315 | 0.0 | 3.2 | 0.00 | 0.23 | 0.00 | 82 | 1010.9 |
| 20260510085520 | 14 | 302 | 0.0 | 3.2 | 0.00 | 0.25 | 0.00 | 82 | 1010.7 |
| 20260510084519 | 14 | 216 | 0.0 | 3.2 | 0.00 | 0.25 | 0.00 | 81 | 1010.5 |
| 20260510083520 | 14 | 309 | 0.0 | 1.6 | 0.00 | 0.28 | 0.00 | 81 | 1010.2 |
| 20260510082519 | 14 | 250 | 0.0 | 3.2 | 0.00 | 0.28 | 0.00 | 80 | 1010.0 |
| 20260510081521 | 15 | 296 | 0.0 | 3.2 | 0.00 | 0.30 | 0.00 | 79 | 1009.9 |
| 20260510080524 | 15 | 300 | 1.6 | 3.2 | 0.00 | 0.30 | 0.00 | 79 | 1009.9 |
| 20260510075520 | 15 | 299 | 0.0 | 3.2 | 0.00 | 0.33 | 0.00 | 78 | 1009.8 |
| 20260510074520 | 15 | 325 | 1.6 | 3.2 | 0.00 | 0.36 | 0.00 | 78 | 1010.0 |
| 20260510073517 | 15 | 319 | 1.6 | 6.4 | 0.00 | 0.41 | 0.00 | 79 | 1010.0 |
| 20260510072520 | 15 | 294 | 0.0 | 3.2 | 0.00 | 0.43 | 0.00 | 79 | 1010.1 |
| 20260510071518 | 15 | 238 | 0.0 | 1.6 | 0.00 | 0.48 | 0.00 | 78 | 1010.0 |
| 20260510070518 | 15 | 315 | 0.0 | 1.6 | 0.00 | 0.51 | 0.00 | 77 | 1010.0 |
| 20260510065518 | 16 | 333 | 0.0 | 3.2 | 0.00 | 0.53 | 0.00 | 76 | 1010.0 |
| 20260510064521 | 16 | 354 | 0.0 | 3.2 | 0.00 | 0.56 | 0.00 | 75 | 1009.9 |
| 20260510063521 | 16 | 0.0 | 0.0 | 0.00 | 0.56 | 0.00 | 75 | 1009.7 | |
| 20260510062518 | 16 | 298 | 1.6 | 6.4 | 0.00 | 0.58 | 0.00 | 75 | 1009.9 |
| 20260510061519 | 16 | 235 | 0.0 | 8.0 | 0.00 | 0.58 | 0.00 | 76 | 1010.1 |
| 20260510060519 | 16 | 289 | 1.6 | 8.0 | 0.00 | 0.58 | 0.00 | 79 | 1010.2 |
| 20260510055520 | 15 | 277 | 0.0 | 6.4 | 0.00 | 0.58 | 0.00 | 82 | 1010.2 |
| 20260510054520 | 15 | 321 | 0.0 | 1.6 | 0.00 | 0.58 | 0.00 | 82 | 1010.2 |
| 20260510053519 | 15 | 0.0 | 0.0 | 0.00 | 0.58 | 0.00 | 82 | 1010.1 | |
| 20260510052520 | 15 | 0.0 | 0.0 | 0.00 | 0.58 | 0.00 | 82 | 1010.0 | |
| 20260510051519 | 15 | 0.0 | 0.0 | 0.00 | 0.58 | 0.00 | 81 | 1009.8 | |
| 20260510050519 | 15 | 0.0 | 0.0 | 0.00 | 0.58 | 0.00 | 81 | 1009.7 | |
| 20260510045517 | 15 | 0.0 | 0.0 | 0.00 | 0.58 | 0.00 | 81 | 1009.8 | |
| 20260510044520 | 15 | 0.0 | 0.0 | 0.00 | 0.58 | 0.00 | 81 | 1009.5 | |
| 20260510043520 | 15 | 75 | 0.0 | 4.8 | 0.00 | 0.61 | 0.00 | 81 | 1009.5 |
| 20260510042520 | 15 | 0.0 | 0.0 | 0.00 | 0.61 | 0.00 | 81 | 1009.5 | |
| 20260510041523 | 15 | 0.0 | 0.0 | 0.00 | 0.61 | 0.00 | 81 | 1009.4 | |
| 20260510040519 | 15 | 0.0 | 0.0 | 0.00 | 0.61 | 0.00 | 81 | 1009.3 | |
| 20260510035518 | 15 | 0.0 | 0.0 | 0.00 | 0.61 | 0.61 | 82 | 1009.2 | |
| 20260510034522 | 15 | 0.0 | 0.0 | 0.00 | 0.61 | 0.61 | 81 | 1009.2 | |
| 20260510033522 | 15 | 0.0 | 0.0 | 0.00 | 0.61 | 0.61 | 80 | 1009.1 | |
| 20260510032518 | 15 | 0.0 | 0.0 | 0.00 | 0.61 | 0.61 | 79 | 1009.0 | |
| 20260510031520 | 15 | 0.0 | 0.0 | 0.00 | 0.61 | 0.61 | 78 | 1008.9 | |
| 20260510030519 | 16 | 0.0 | 0.0 | 0.00 | 0.61 | 0.61 | 77 | 1008.9 | |
| 20260510025519 | 16 | 0.0 | 0.0 | 0.00 | 0.61 | 0.61 | 77 | 1008.9 | |
| 20260510024519 | 16 | 0.0 | 0.0 | 0.00 | 0.61 | 0.61 | 76 | 1008.8 | |
| 20260510023520 | 16 | 0.0 | 0.0 | 0.00 | 0.61 | 0.61 | 75 | 1008.7 | |
| 20260510022519 | 16 | 149 | 0.0 | 3.2 | 0.00 | 0.61 | 0.61 | 75 | 1008.6 |
| 20260510021520 | 16 | 41 | 0.0 | 1.6 | 0.00 | 0.61 | 0.61 | 73 | 1008.5 |
| 20260510020520 | 17 | 0.0 | 0.0 | 0.00 | 0.61 | 0.61 | 72 | 1008.4 | |
| 20260510015517 | 17 | 0.0 | 0.0 | 0.00 | 0.61 | 0.61 | 71 | 1008.3 | |
| 20260510014521 | 17 | 180 | 0.0 | 4.8 | 0.00 | 0.61 | 0.61 | 70 | 1008.1 |
| 20260510013522 | 18 | 196 | 0.0 | 3.2 | 0.00 | 0.61 | 0.61 | 69 | 1008.0 |
| 20260510012520 | 18 | 191 | 0.0 | 4.8 | 0.00 | 0.61 | 0.61 | 68 | 1007.8 |
| 20260510011518 | 18 | 176 | 1.6 | 4.8 | 0.00 | 0.61 | 0.61 | 69 | 1007.7 |
| 20260510010518 | 18 | 0.0 | 0.0 | 0.00 | 0.61 | 0.61 | 67 | 1007.7 | |
| 20260510005519 | 19 | 213 | 0.0 | 3.2 | 0.00 | 0.61 | 0.61 | 66 | 1007.6 |
| 20260510004522 | 19 | 206 | 0.0 | 3.2 | 0.00 | 0.61 | 0.61 | 65 | 1007.4 |
| 20260510003521 | 20 | 208 | 1.6 | 4.8 | 0.00 | 0.61 | 0.61 | 64 | 1007.3 |
| 20260510002518 | 20 | 225 | 1.6 | 8.0 | 0.00 | 0.61 | 0.61 | 63 | 1007.1 |
| 20260510001519 | 20 | 174 | 0.0 | 3.2 | 0.00 | 0.64 | 0.61 | 63 | 1007.0 |
| 20260510000518 | 20 | 233 | 0.0 | 3.2 | 0.00 | 0.64 | 0.61 | 62 | 1006.9 |
| 20260509235519 | 21 | 193 | 3.2 | 9.7 | 0.00 | 0.64 | 0.61 | 60 | 1006.8 |
| 20260509234519 | 21 | 190 | 3.2 | 11.3 | 0.00 | 0.64 | 0.61 | 59 | 1006.7 |
| 20260509233520 | 21 | 181 | 1.6 | 8.0 | 0.00 | 0.64 | 0.61 | 59 | 1006.6 |
| 20260509232520 | 22 | 184 | 4.8 | 9.7 | 0.00 | 0.64 | 0.61 | 58 | 1006.6 |
| 20260509231521 | 22 | 183 | 3.2 | 9.7 | 0.00 | 0.64 | 0.61 | 57 | 1006.5 |
| 20260509230518 | 21 | 185 | 3.2 | 8.0 | 0.00 | 0.64 | 0.61 | 58 | 1006.5 |
| 20260509225517 | 21 | 181 | 3.2 | 8.0 | 0.00 | 0.64 | 0.61 | 59 | 1006.5 |
| 20260509224521 | 22 | 177 | 4.8 | 12.9 | 0.00 | 0.64 | 0.61 | 59 | 1006.4 |
| 20260509223520 | 22 | 189 | 4.8 | 11.3 | 0.00 | 0.64 | 0.61 | 58 | 1006.4 |
| 20260509222518 | 22 | 182 | 4.8 | 11.3 | 0.00 | 0.64 | 0.61 | 58 | 1006.3 |
| 20260509221518 | 21 | 182 | 6.4 | 16.1 | 0.00 | 0.64 | 0.61 | 59 | 1006.3 |
| 20260509220519 | 22 | 189 | 8.0 | 16.1 | 0.00 | 0.64 | 0.61 | 59 | 1006.4 |
| 20260509215520 | 22 | 162 | 4.8 | 11.3 | 0.00 | 0.64 | 0.61 | 61 | 1006.5 |
| 20260509214519 | 22 | 182 | 4.8 | 9.7 | 0.00 | 0.64 | 0.61 | 61 | 1006.6 |
| 20260509213519 | 22 | 184 | 4.8 | 12.9 | 0.00 | 0.64 | 0.61 | 61 | 1006.6 |
| 20260509212519 | 22 | 165 | 3.2 | 9.7 | 0.00 | 0.64 | 0.61 | 61 | 1006.7 |
| 20260509211521 | 22 | 236 | 4.8 | 11.3 | 0.00 | 0.64 | 0.61 | 60 | 1006.7 |
| 20260509210520 | 22 | 179 | 6.4 | 17.7 | 0.00 | 0.64 | 0.61 | 61 | 1006.7 |
| 20260509205519 | 22 | 169 | 4.8 | 9.7 | 0.00 | 0.64 | 0.61 | 62 | 1006.8 |
| 20260509204519 | 22 | 193 | 4.8 | 12.9 | 0.00 | 0.64 | 0.61 | 61 | 1006.8 |
| 20260509203519 | 22 | 193 | 3.2 | 11.3 | 0.00 | 0.64 | 0.61 | 62 | 1006.9 |
| 20260509201517 | 22 | 197 | 4.8 | 12.9 | 0.00 | 0.64 | 0.61 | 62 | 1007.0 |
| 20260509200517 | 21 | 191 | 4.8 | 12.9 | 0.00 | 0.64 | 0.61 | 64 | 1007.2 |
| 20260509195521 | 21 | 193 | 4.8 | 14.5 | 0.00 | 0.64 | 0.61 | 62 | 1007.3 |
| 20260509194522 | 21 | 212 | 4.8 | 11.3 | 0.00 | 0.64 | 0.61 | 62 | 1007.4 |
| 20260509193521 | 21 | 171 | 4.8 | 12.9 | 0.00 | 0.64 | 0.61 | 64 | 1007.4 |
| 20260509192518 | 21 | 200 | 4.8 | 14.5 | 0.00 | 0.64 | 0.61 | 64 | 1007.6 |
| 20260509191518 | 21 | 202 | 4.8 | 9.7 | 0.00 | 0.64 | 0.61 | 65 | 1007.7 |